www.pogodaiklimat.ru

Погода и климат >> Архив погоды >> Россия >> Нижегородская область >> Лысково


ПОГОДА в Лысково

  • Прогноз погоды в Лысково
  • Монитор погоды в Лысково
  • Климат города

АРХИВ ПОГОДЫ в Лысково

Время (UTC), дата Ветер
(напр.,м/с)
 
Видим.   Явления Облачность Т
(С)
Тd
(С)
f
(%)
Тe
(С)
Тes
(С)
Комфортность P
(гПа)
Po
(гПа)
Тmin
(С)
Tmax
(С)
R
(мм)
R24
(мм)
S
(см)
21 9.08 штиль 0
{2}
20 км 3/3 600 м
[Sc]
+11.7 +9.8 88 +11 +11 1026.0 1011.0
00 10.08 штиль 0
{2}
20 км 1/1 600 м
[Sc]
+10.3 +9.0 92 +10 +10 1026.2 1011.1
03 10.08 Ю 1-2
{2}
10 км ясно +11.3 +9.2 87 +11 +12 1026.7 1011.6 +8.4
06 10.08 З 2-4
{4}
20 км 6/0
[Ci fib]
+21.4 +9.5 47 +23 +30 комфорт 1025.9 1011.3
09 10.08 З 3-6
{6}
20 км 1/1 1000 м
[Sc]
+24.8 +10.9 42 +26 +35 жарко 1024.5 1010.1
12 10.08 З 4-8
{8}
20 км 3/3 600 м
[Sc]
+26.5 +11.2 38 +27 +31 жарко 1022.8 1008.5
15 10.08 З 3-5
{8}
20 км 8/0
[Ac cast Cc]
+25.8 +11.4 41 +27 +28 жарко 1021.9 1007.6 +27.2
18 10.08 ЮЗ 2-3
{7}
20 км 3/0
[Ac lent]
+20.5 +12.9 62 +23 +23 комфорт 1022.4 1007.8
21 10.08 ЮЗ 1-3
{4}
20 км ясно +18.7 +13.4 71 +21 +21 комфорт 1022.4 1007.7
00 11.08 ЮЗ 2-2
{5}
20 км ясно +17.2 +12.7 75 +18 +18 1022.0 1007.3
03 11.08 ЮЗ 2-4
{4}
20 км ясно +17.7 +13.2 75 +18 +19 1021.8 1007.2 +16.5
06 11.08 З 3-5
{6}
20 км 3/0
[Ci fib]
+23.6 +15.7 61 +27 +33 жарко 1021.1 1006.8
09 11.08 З 5-9
{11}
20 км 5/5 600 м
[Cu med, cong]
+27.5 +14.4 45 +30 +33 жарко 1019.9 1005.8
12 11.08 З 4-8
{10}
20 км 4/4 600 м
[Cu hum]
+29.0 +13.4 38 +31 +34 жарко 1018.8 1004.7
15 11.08 З 3-7
{10}
20 км ясно +27.3 +13.4 42 +29 +30 жарко 1017.5 1003.3 +29.3
18 11.08 Ю 2-3
{7}
20 км ясно +20.1 +12.9 63 +23 +23 комфорт 1018.1 1003.6
21 11.08 Ю 1-3
{3}
20 км ясно +16.7 +11.8 73 +18 +18 1018.0 1003.3
00 12.08 Ю 1-2
{3}
20 км ясно +12.3 +10.7 90 +12 +12 1017.9 1003.0
03 12.08 Ю 1-2
{2}
10 км ясно +14.3 +11.9 85 +15 +16 1017.6 1002.8 +11.9
06 12.08 ЮЗ 1-3
{3}
20 км ясно +24.7 +14.3 52 +27 +36 жарко 1015.8 1001.6
09 12.08 З 3-6
{10}
20 км 1/1 1000 м
[Cu hum]
+27.2 +10.3 35 +28 +37 жарко 1014.7 1000.6
12 12.08 ЮЗ 3-6
{8}
20 км 1/1 1000 м
[Cu hum]
+28.5 +10.3 32 +29 +34 жарко 1013.2 999.2
15 12.08 ЮЗ 2-5
{7}
20 км ясно +26.9 +10.9 37 +28 +29 жарко 1011.8 997.7 +28.9
18 12.08 Ю 1-2
{5}
20 км ясно +17.7 +12.1 70 +19 +19 1011.2 996.8
21 12.08 Ю 1-1
{3}
20 км ясно +15.4 +11.3 77 +16 +16 1010.5 995.9
00 13.08 Ю 1-1
{2}
20 км 5/0
[Ci fib]
+14.1 +11.9 87 +14 +14 1009.7 995.1
03 13.08 ЮЗ 1-3
{3}
20 км 9/0
[Ci fib]
+15.8 +12.2 79 +16 +17 1009.9 995.4 +13.5
06 13.08 З 3-5
{6}
20 км 9/0
[Cs]
+22.4 +12.4 53 +25 +30 комфорт 1009.9 995.6
09 13.08 ЮЗ 4-9
{9}
20 км 8/5 600 м
[Sc Ci fib]
+24.8 +9.2 37 +25 +29 комфорт 1009.3 995.1
12 13.08 ЮЗ 5-8
{11}
20 км 9/5 600 м
[Cb cap Ci ing]
+24.8 +7.1 32 +25 +27 комфорт 1008.6 994.4
15 13.08 З 3-6
{6}
20 км 10/0
[Ci ing]
+21.4 +7.0 39 +22 +23 комфорт 1008.6 994.3 +25.5
18 13.08 ЮЗ 2-3
{8}
20 км 8/0
[Ci fib]
+18.0 +8.2 53 +19 +19 1009.2 994.8
21 13.08 ЮЗ 2-3
{3}
20 км 6/0
[Ci fib]
+14.7 +8.6 67 +14 +14 1009.6 995.0
00 14.08 ЮЗ 2-3
{3}
20 км 4/0
[Ci fib]
+14.2 +8.9 70 +14 +14 1010.6 995.7
03 14.08 Ю 1-2
{3}
20 км 4/3 600 м
[Sc Ci fib]
+13.5 +8.9 74 +14 +14 1011.4 996.7 +12.1
06 14.08 З 3-6
{6}
20 км 8/0
[Ac cast]
+19.7 +8.9 50 +21 +24 комфорт 1012.1 997.6
09 14.08 З 4-6
{10}
20 км 8/8 600 м
[Cb cap]
+21.5 +8.6 44 +23 +24 комфорт 1012.5 998.1
12 14.08 З 3-6
{9}
20 км 8/8 600 м
[Cb cap]
+20.4 +7.4 43 +22 +23 комфорт 1013.2 998.8
15 14.08 З 2-3
{9}
20 км 1/1 600 м
[Sc]
+22.1 +7.6 39 +23 +24 комфорт 1013.5 999.2 +23.4
18 14.08 Ю 1-2
{5}
20 км 1/0
[Ac lent]
+13.0 +8.8 76 +13 +13 1015.3 1000.5
21 14.08 Ю 1-2
{3}
20 км ясно +10.6 +8.0 84 +10 +10 1016.3 1001.4
00 15.08 Ю 1-1
{2}
20 км 3/0
[Ac trans]
+8.7 +7.7 93 +8 +8 1017.2 1002.2
03 15.08 штиль 0
{2}
20 км 6/3 600 м
[Sc Ci fib]
+12.2 +9.9 86 +12 +12 1017.7 1002.8 +7.7
06 15.08 ЮЗ 2-5
{5}
20 км 3/0
[Ci fib]
+21.4 +8.8 44 +23 +30 комфорт 1017.0 1002.5
09 15.08 Ю 3-7
{8}
20 км 9/8 600 м
[Cb cap Ci fib]
+26.3 +8.1 32 +26 +28 жарко 1015.9 1001.8
12 15.08 Ю 2-8
{8}
20 км 9/3 600 м
[Cb cap Ac lent Cs]
+26.8 +8.9 32 +27 +30 жарко 1014.4 1000.3
15 15.08 Ю 2-4
{8}
20 км 9/9 300 м
[Cb cap]
+24.9 +11.1 42 +26 +26 жарко 1012.8 998.6 +27.4
18 15.08 ЮЗ 3-6
{10}
20 км в посл. час ливневой дождь 9/9 300 м
[Cb cap]
+22.3 +14.1 60 +26 +26 жарко 1012.0 997.7
21 15.08 З 3-10
{11}
20 км в посл. час гроза {ливн. осадки} 10/10 300 м
[Cb cap]
+20.6 +14.7 69 +24 +24 комфорт 1011.7 997.4
00 16.08 Ю 2-3
{10}
20 км {гроза, ливн. осадки} 10/10 600 м
[Sc]
+18.1 +14.7 81 +19 +19 1010.1 995.7
03 16.08 ЮЗ 3-6
{10}
20 км 9/3 600 м
[Sc Ac cast Cc]
+18.9 +15.0 78 +20 +20 1010.6 996.2 +18.0 0.1
06 16.08 З 3-6
{8}
20 км 10/9 300 м
[Cb cap Ci fib]
+20.9 +16.1 74 +25 +25 комфорт 1011.6 997.3
09 16.08 З 4-7
{10}
20 км 9/8 300 м
[Cb cap Ci fib]
+22.6 +15.4 64 +27 +28 душно 1012.4 998.1
12 16.08 СЗ 3-6
{9}
20 км 9/8 300 м
[Cb cap Ci fib]
+22.6 +15.1 63 +26 +28 жарко 1013.8 999.5
15 16.08 СЗ 2-5
{8}
20 км {ливн. осадки} 9/8 300 м
[Cb cap Ac trans]
+19.5 +15.6 78 +22 +22 комфорт 1015.2 1000.8 +24.6 0.0
18 16.08 С 2-5
{7}
20 км {ливн. осадки} 9/9 300 м
[Cb cap]
+16.3 +13.6 84 +16 +16 1017.5 1002.8

 

Местоположение метеостанции Лысково (Нижегородская область, Россия): широта 56.01 долгота 45.03 высота над уровнем моря 124 м.

В архиве по умолчанию представлена погода в Лысково за последнюю неделю. Архивные данные за месяц целиком и за предыдущие месяцы, начиная с января 2011 года, Вы можете получить, выбрав интересующий диапазон дат из раскрывающегося списка и нажав кнопку "Ввод!".


*Определитесь, кто Вы:
робот инопланетянин человек

Внимание! Время в таблицах - всемирное. Для получения местного времени необходимо прибавить поправку, которая в Лысково равна 3 ч.

Смотрите также архив погоды в соседних городах и на ближайших метеорологических станциях:

Погода в Сергаче (Нижегородская область, Россия) (61 км)
Погода в Дальнем Константиново (Нижегородская область, Россия) (64 км)
Погода в Нижнем Новгороде (Нижегородская область, Россия) (70 км)
Погода в Нижнем Новгороде аэропорт (Нижегородская область, Россия) (82 км)
Погода в Семенове (Нижегородская область, Россия) (86 км)
Погода в Воскресенском (Нижегородская область, Россия) (92 км)
Погода в Козьмодемьянске (Марий-Эл, Россия) (102 км)
Погода в Арзамасе (Нижегородская область, Россия) (106 км)
Погода в Большом Болдино (Нижегородская область, Россия) (112 км)
Погода в Лукоянове (Нижегородская область, Россия) (114 км)

Пояснения к столбцам:

Ветер - указаны скорость ветра в м/с - средняя за 10 мин, порывы в срок и между сроками (в фигурных скобках) и направление, откуда дует ветер: С - северный, СВ - северо-восточный, В - восточный, ЮВ - юго-восточный, Ю - южный, ЮЗ - юго-западный, З - западный, СЗ - северо-западный.
Видимость - горизонтальная дальность видимости в метрах или километрах. При видимости от 1 до 10 км при отсутствии осадков обычно наблюдается дымка, при ухудшении видимости до 1 км и менее - туман. В сухую погоду видимость может ухудшаться дымом, пылью или мглою.
Явления - указаны атмосферные явления, наблюдавшиеся в срок или в последний час перед сроком; фигурными скобками обозначены явления, наблюдавшиеся между сроками (за 1-3 часа до срока); квадратными скобками обозначены град или гололедные отложения с указанием их диаметра в мм.
Облачность - указаны через наклонную черту общая и нижняя облачность в баллах и высота нижней границы облаков в метрах; квадратными скобками обозначены формы облаков: Ci - перистые, Cs - перисто-слоистые, Cc - перисто-кучевые, Ac - высококучевые, As - высокослоистые, Sc - слоисто-кучевые, Ns - слоисто-дождевые, Cu - кучевые, Cb - кучево-дождевые. Подробнее классификацию облаков см. в Атласе облаков (PDF).
T - Температура воздуха - температура, измеренная на высоте 2 м над землей.
Td - Температура точки росы - температура, при понижении до которой содержащийся в воздухе водяной пар достигнет насыщения.
f - Относительная влажность воздуха - влажноcть воздуха, измеренная на высоте 2 м над землей.
Te - Эффективная температура - температура, которую ощущает одетый по сезону человек в тени. Характеристика душности погоды. При расчете учитывается влияние влажности воздуха и скорости ветра на теплоощущения человека.
Tes - Эффективная температура на солнце - температура, которую ощущает человек, с поправкой на солнечный нагрев. Характеристика знойности погоды. Зависит от высоты солнца над горизонтом, облачности и скорости ветра. Ночью, в пасмурную погоду, а также при ветре 12 м/с и более поправка равна нулю.
P - Атмосферное давление - приведенное к уровню моря атмосферное давление.
Po - Атмосферное давление - измеренное на уровне метеостанции атмосферное давление.
Tmin - Минимальная температура - минимум температуры воздуха на высоте 2 м над землей.
Tmax - Максимальная температура - максимум температуры воздуха на высоте 2 м над землей.
R - Количество осадков - Количество выпавших осадков за период времени, мм. При наведении курсора мыши на число - период времени, за который выпало указанное количество осадков.
R24 - Количество осадков - Количество выпавших осадков за 24 часа, мм.
S - Снежный покров - Высота снежного покрова, см. При наведении курсора мыши на число - состояние снежного покрова и степень покрытия местности в баллах.